{"data":{"norad_id":35685,"epoch":"2026-09-20T04:15:16.910784Z","epoch_age_seconds":46012,"freshness":"FRESH","line1":"1 35685U 09041E   26263.17727906  .00001074  00000+0  10629-3 0  9991","line2":"2 35685  98.1270  24.9297 0048457 210.3669 149.4741 14.93318347928590","mean_motion":14.93318347,"eccentricity":0.0048457,"inclination_deg":98.127,"raan_deg":24.9297,"arg_perigee_deg":210.3669,"mean_anomaly_deg":149.4741,"bstar":0.00010629,"rev_number":92859,"period_min":96.429539146351,"perigee_km":553.84348313639,"apogee_km":621.35120093881,"semimajor_km":6965.7343420376,"source":"CELESTRAK","updated_at":"2026-09-20T09:00:13.735438Z"}}